contact:dominique.lefevre@mio.osupytheas.fr, maurice.libes@osupytheas.fr, didier.mallarino@osupytheas.fr
Project:EMSO http://www.emso-fr.org/EMSO-France
Depth: 2436.0 m
Title:EMSO Ligure Ouest : Data MII capteur MICROCAT
DateTime_Computer,Latitude,Longitude,Temperature,Conductivity,Pressure,DateTime_Instrument
DateTime_Computer,Latitude,Longitude,degC,S m-1,dbar,DateTime_Instrument
2022-09-10T00:00:48Z,42.805,6.029,13.3011,4.60056,2470.38,2022-9-10T02:02:40Z
2022-09-10T00:03:51Z,42.805,6.029,13.3004,4.60058,2470.334,2022-9-10T02:05:43Z
2022-09-10T00:06:54Z,42.805,6.029,13.3004,4.60057,2470.32,2022-9-10T02:08:46Z
2022-09-10T00:09:57Z,42.805,6.029,13.3007,4.60057,2470.32,2022-9-10T02:11:49Z
2022-09-10T00:13:00Z,42.805,6.029,13.3005,4.60059,2470.334,2022-9-10T02:14:52Z
2022-09-10T00:16:04Z,42.805,6.029,13.3008,4.60057,2470.273,2022-9-10T02:17:55Z
2022-09-10T00:19:07Z,42.805,6.029,13.3007,4.60058,2470.297,2022-9-10T02:20:59Z
2022-09-10T00:22:10Z,42.805,6.029,13.3009,4.60056,2470.297,2022-9-10T02:24:02Z
2022-09-10T00:25:13Z,42.805,6.029,13.3008,4.60054,2470.297,2022-9-10T02:27:05Z
2022-09-10T00:28:16Z,42.805,6.029,13.3006,4.60056,2470.32,2022-9-10T02:30:08Z
2022-09-10T00:31:19Z,42.805,6.029,13.3011,4.60058,2470.273,2022-9-10T02:33:11Z
2022-09-10T00:34:22Z,42.805,6.029,13.3007,4.60057,2470.297,2022-9-10T02:36:14Z
2022-09-10T00:37:25Z,42.805,6.029,13.3009,4.60059,2470.273,2022-9-10T02:39:17Z
2022-09-10T00:40:29Z,42.805,6.029,13.3005,4.60061,2470.32,2022-9-10T02:42:20Z
2022-09-10T00:43:32Z,42.805,6.029,13.3006,4.60059,2470.287,2022-9-10T02:45:24Z
2022-09-10T00:46:35Z,42.805,6.029,13.3008,4.60058,2470.297,2022-9-10T02:48:27Z
2022-09-10T00:49:38Z,42.805,6.029,13.3007,4.60057,2470.287,2022-9-10T02:51:30Z
2022-09-10T00:52:41Z,42.805,6.029,13.3009,4.60053,2470.25,2022-9-10T02:54:33Z
2022-09-10T00:55:44Z,42.805,6.029,13.3005,4.60053,2470.283,2022-9-10T02:57:36Z
2022-09-10T00:58:47Z,42.805,6.029,13.3011,4.60054,2470.25,2022-9-10T03:00:39Z
2022-09-10T01:01:50Z,42.805,6.029,13.3009,4.60057,2470.273,2022-9-10T03:03:42Z
2022-09-10T01:04:54Z,42.805,6.029,13.3007,4.60059,2470.287,2022-9-10T03:06:45Z
2022-09-10T01:07:57Z,42.805,6.029,13.3008,4.60055,2470.25,2022-9-10T03:09:48Z
2022-09-10T01:11:00Z,42.805,6.029,13.3009,4.60053,2470.25,2022-9-10T03:12:52Z
2022-09-10T01:14:03Z,42.805,6.029,13.3009,4.60053,2470.227,2022-9-10T03:15:55Z
2022-09-10T01:17:06Z,42.805,6.029,13.3007,4.60056,2470.264,2022-9-10T03:18:58Z
2022-09-10T01:20:09Z,42.805,6.029,13.3007,4.60053,2470.25,2022-9-10T03:22:01Z
2022-09-10T01:23:12Z,42.805,6.029,13.3009,4.60055,2470.25,2022-9-10T03:25:04Z
2022-09-10T01:26:15Z,42.805,6.029,13.3009,4.60053,2470.273,2022-9-10T03:28:07Z
2022-09-10T01:29:18Z,42.805,6.029,13.3006,4.60055,2470.25,2022-9-10T03:31:10Z
2022-09-10T01:32:22Z,42.805,6.029,13.3006,4.60052,2470.25,2022-9-10T03:34:13Z
2022-09-10T01:35:25Z,42.805,6.029,13.3006,4.60052,2470.25,2022-9-10T03:37:17Z
2022-09-10T01:38:28Z,42.805,6.029,13.3006,4.60051,2470.287,2022-9-10T03:40:20Z
2022-09-10T01:41:31Z,42.805,6.029,13.3009,4.60051,2470.273,2022-9-10T03:43:23Z
2022-09-10T01:44:34Z,42.805,6.029,13.3006,4.60052,2470.236,2022-9-10T03:46:26Z
2022-09-10T01:47:37Z,42.805,6.029,13.3009,4.60056,2470.264,2022-9-10T03:49:29Z
2022-09-10T01:50:40Z,42.805,6.029,13.3007,4.60051,2470.264,2022-9-10T03:52:32Z
2022-09-10T01:53:43Z,42.805,6.029,13.3006,4.60050,2470.287,2022-9-10T03:55:35Z
2022-09-10T01:56:47Z,42.805,6.029,13.3008,4.60052,2470.264,2022-9-10T03:58:38Z
2022-09-10T01:59:50Z,42.805,6.029,13.3008,4.60051,2470.25,2022-9-10T04:01:42Z
2022-09-10T02:02:53Z,42.805,6.029,13.3006,4.60051,2470.25,2022-9-10T04:04:45Z
2022-09-10T02:05:56Z,42.805,6.029,13.3008,4.60054,2470.264,2022-9-10T04:07:48Z
2022-09-10T02:08:59Z,42.805,6.029,13.3006,4.60051,2470.287,2022-9-10T04:10:51Z
2022-09-10T02:12:02Z,42.805,6.029,13.3011,4.60051,2470.25,2022-9-10T04:13:54Z
2022-09-10T02:15:05Z,42.805,6.029,13.3010,4.60057,2470.25,2022-9-10T04:16:57Z
2022-09-10T02:18:08Z,42.805,6.029,13.3011,4.60052,2470.264,2022-9-10T04:20:00Z
2022-09-10T02:21:12Z,42.805,6.029,13.3009,4.60051,2470.273,2022-9-10T04:23:03Z
2022-09-10T02:24:15Z,42.805,6.029,13.3007,4.60051,2470.227,2022-9-10T04:26:07Z
2022-09-10T02:27:18Z,42.805,6.029,13.3011,4.60051,2470.227,2022-9-10T04:29:10Z
2022-09-10T02:30:21Z,42.805,6.029,13.3009,4.60051,2470.25,2022-9-10T04:32:13Z
2022-09-10T02:33:24Z,42.805,6.029,13.3006,4.60050,2470.227,2022-9-10T04:35:16Z
2022-09-10T02:36:27Z,42.805,6.029,13.3010,4.60049,2470.264,2022-9-10T04:38:19Z
2022-09-10T02:39:30Z,42.805,6.029,13.3007,4.60050,2470.273,2022-9-10T04:41:22Z
2022-09-10T02:42:33Z,42.805,6.029,13.3007,4.60051,2470.25,2022-9-10T04:44:25Z
2022-09-10T02:45:37Z,42.805,6.029,13.3010,4.60050,2470.264,2022-9-10T04:47:28Z
2022-09-10T02:48:40Z,42.805,6.029,13.3009,4.60052,2470.264,2022-9-10T04:50:32Z
2022-09-10T02:51:43Z,42.805,6.029,13.3009,4.60051,2470.264,2022-9-10T04:53:35Z
2022-09-10T02:54:46Z,42.805,6.029,13.3009,4.60053,2470.264,2022-9-10T04:56:38Z
2022-09-10T02:57:49Z,42.805,6.029,13.3011,4.60051,2470.24,2022-9-10T04:59:41Z
2022-09-10T03:00:52Z,42.805,6.029,13.3009,4.60052,2470.25,2022-9-10T05:02:44Z
2022-09-10T03:03:55Z,42.805,6.029,13.3008,4.60051,2470.287,2022-9-10T05:05:47Z
2022-09-10T03:06:58Z,42.805,6.029,13.3009,4.60052,2470.264,2022-9-10T05:08:50Z
2022-09-10T03:10:02Z,42.805,6.029,13.3007,4.60050,2470.297,2022-9-10T05:11:53Z
2022-09-10T03:13:05Z,42.805,6.029,13.3006,4.60051,2470.24,2022-9-10T05:14:56Z
2022-09-10T03:16:08Z,42.805,6.029,13.3009,4.60052,2470.264,2022-9-10T05:18:00Z
2022-09-10T03:19:11Z,42.805,6.029,13.3009,4.60050,2470.273,2022-9-10T05:21:03Z
2022-09-10T03:22:14Z,42.805,6.029,13.3007,4.60052,2470.287,2022-9-10T05:24:06Z
2022-09-10T03:25:17Z,42.805,6.029,13.3009,4.60049,2470.287,2022-9-10T05:27:09Z
2022-09-10T03:28:20Z,42.805,6.029,13.3005,4.60052,2470.273,2022-9-10T05:30:12Z
2022-09-10T03:31:23Z,42.805,6.029,13.3007,4.60049,2470.264,2022-9-10T05:33:15Z
2022-09-10T03:34:26Z,42.805,6.029,13.3011,4.60052,2470.287,2022-9-10T05:36:18Z
2022-09-10T03:37:30Z,42.805,6.029,13.3006,4.60054,2470.297,2022-9-10T05:39:21Z
2022-09-10T03:40:33Z,42.805,6.029,13.3006,4.60051,2470.31,2022-9-10T05:42:25Z
2022-09-10T03:43:36Z,42.805,6.029,13.3004,4.60049,2470.273,2022-9-10T05:45:28Z
2022-09-10T03:46:39Z,42.805,6.029,13.3004,4.60049,2470.297,2022-9-10T05:48:31Z
2022-09-10T03:49:42Z,42.805,6.029,13.3009,4.60049,2470.297,2022-9-10T05:51:34Z
2022-09-10T03:52:45Z,42.805,6.029,13.3004,4.60047,2470.31,2022-9-10T05:54:37Z
2022-09-10T03:55:48Z,42.805,6.029,13.3009,4.60049,2470.31,2022-9-10T05:57:40Z
2022-09-10T03:58:51Z,42.805,6.029,13.3009,4.60053,2470.334,2022-9-10T06:00:43Z
2022-09-10T04:01:55Z,42.805,6.029,13.3010,4.60052,2470.273,2022-9-10T06:03:46Z
2022-09-10T04:04:58Z,42.805,6.029,13.3008,4.60050,2470.25,2022-9-10T06:06:50Z
2022-09-10T04:08:01Z,42.805,6.029,13.3009,4.60050,2470.283,2022-9-10T06:09:53Z
2022-09-10T04:11:04Z,42.805,6.029,13.3004,4.60049,2470.297,2022-9-10T06:12:56Z
2022-09-10T04:14:07Z,42.805,6.029,13.3006,4.60049,2470.343,2022-9-10T06:15:59Z
2022-09-10T04:17:10Z,42.805,6.029,13.3009,4.60050,2470.32,2022-9-10T06:19:02Z
2022-09-10T04:20:13Z,42.805,6.029,13.3004,4.60057,2470.32,2022-9-10T06:22:05Z
2022-09-10T04:23:16Z,42.805,6.029,13.3005,4.60047,2470.31,2022-9-10T06:25:08Z
2022-09-10T04:26:20Z,42.805,6.029,13.3006,4.60053,2470.334,2022-9-10T06:28:11Z
2022-09-10T04:29:23Z,42.805,6.029,13.3006,4.60050,2470.297,2022-9-10T06:31:15Z
2022-09-10T04:32:26Z,42.805,6.029,13.3004,4.60051,2470.32,2022-9-10T06:34:18Z
2022-09-10T04:35:29Z,42.805,6.029,13.3010,4.60056,2470.357,2022-9-10T06:37:21Z
2022-09-10T04:38:32Z,42.805,6.029,13.3004,4.60053,2470.334,2022-9-10T06:40:24Z
2022-09-10T04:41:35Z,42.805,6.029,13.3004,4.60051,2470.357,2022-9-10T06:43:27Z
2022-09-10T04:44:38Z,42.805,6.029,13.3007,4.60049,2470.366,2022-9-10T06:46:30Z
2022-09-10T04:47:41Z,42.805,6.029,13.3004,4.60047,2470.357,2022-9-10T06:49:33Z
2022-09-10T04:50:44Z,42.805,6.029,13.3006,4.60051,2470.32,2022-9-10T06:52:36Z
2022-09-10T04:53:48Z,42.805,6.029,13.3007,4.60056,2470.343,2022-9-10T06:55:39Z
2022-09-10T04:56:51Z,42.805,6.029,13.3010,4.60052,2470.32,2022-9-10T06:58:43Z
2022-09-10T04:59:54Z,42.805,6.029,13.3006,4.60050,2470.343,2022-9-10T07:01:46Z
2022-09-10T05:02:57Z,42.805,6.029,13.3005,4.60050,2470.366,2022-9-10T07:04:49Z
2022-09-10T05:06:00Z,42.805,6.029,13.3009,4.60048,2470.413,2022-9-10T07:07:52Z
2022-09-10T05:09:03Z,42.805,6.029,13.3011,4.60052,2470.343,2022-9-10T07:10:55Z
2022-09-10T05:12:06Z,42.805,6.029,13.3008,4.60051,2470.343,2022-9-10T07:13:58Z
2022-09-10T05:15:09Z,42.805,6.029,13.3010,4.60056,2470.38,2022-9-10T07:17:01Z
2022-09-10T05:18:13Z,42.805,6.029,13.3006,4.60054,2470.366,2022-9-10T07:20:04Z
2022-09-10T05:21:16Z,42.805,6.029,13.3006,4.60048,2470.39,2022-9-10T07:23:08Z
2022-09-10T05:24:19Z,42.805,6.029,13.3008,4.60050,2470.357,2022-9-10T07:26:11Z
2022-09-10T05:27:22Z,42.805,6.029,13.3009,4.60049,2470.38,2022-9-10T07:29:14Z
2022-09-10T05:30:25Z,42.805,6.029,13.3010,4.60052,2470.413,2022-9-10T07:32:17Z
2022-09-10T05:33:28Z,42.805,6.029,13.3010,4.60049,2470.413,2022-9-10T07:35:20Z
2022-09-10T05:36:31Z,42.805,6.029,13.3009,4.60049,2470.38,2022-9-10T07:38:23Z
2022-09-10T05:39:34Z,42.805,6.029,13.3007,4.60049,2470.366,2022-9-10T07:41:26Z
2022-09-10T05:42:38Z,42.805,6.029,13.3007,4.60049,2470.404,2022-9-10T07:44:29Z
2022-09-10T05:45:41Z,42.805,6.029,13.3010,4.60052,2470.39,2022-9-10T07:47:33Z
2022-09-10T05:48:44Z,42.805,6.029,13.3009,4.60050,2470.404,2022-9-10T07:50:36Z
2022-09-10T05:51:47Z,42.805,6.029,13.3008,4.60047,2470.413,2022-9-10T07:53:39Z
2022-09-10T05:54:50Z,42.805,6.029,13.3007,4.60049,2470.39,2022-9-10T07:56:42Z
2022-09-10T05:57:53Z,42.805,6.029,13.3007,4.60052,2470.357,2022-9-10T07:59:45Z
2022-09-10T06:00:56Z,42.805,6.029,13.3006,4.60047,2470.39,2022-9-10T08:02:48Z
2022-09-10T06:03:59Z,42.805,6.029,13.3010,4.60048,2470.38,2022-9-10T08:05:51Z
2022-09-10T06:07:02Z,42.805,6.029,13.3009,4.60049,2470.39,2022-9-10T08:08:54Z
2022-09-10T06:10:06Z,42.805,6.029,13.3011,4.60052,2470.366,2022-9-10T08:11:57Z
2022-09-10T06:13:09Z,42.805,6.029,13.3006,4.60051,2470.366,2022-9-10T08:15:01Z
2022-09-10T06:16:12Z,42.805,6.029,13.3008,4.60048,2470.38,2022-9-10T08:18:04Z
2022-09-10T06:19:15Z,42.805,6.029,13.3009,4.60047,2470.404,2022-9-10T08:21:07Z
2022-09-10T06:22:18Z,42.805,6.029,13.3010,4.60047,2470.39,2022-9-10T08:24:10Z
2022-09-10T06:25:21Z,42.805,6.029,13.3009,4.60052,2470.38,2022-9-10T08:27:13Z
2022-09-10T06:28:24Z,42.805,6.029,13.3009,4.60049,2470.427,2022-9-10T08:30:16Z
2022-09-10T06:31:27Z,42.805,6.029,13.3010,4.60049,2470.413,2022-9-10T08:33:19Z
2022-09-10T06:34:31Z,42.805,6.029,13.3011,4.60048,2470.404,2022-9-10T08:36:22Z
2022-09-10T06:37:34Z,42.805,6.029,13.3011,4.60049,2470.39,2022-9-10T08:39:26Z
2022-09-10T06:40:37Z,42.805,6.029,13.3009,4.60049,2470.404,2022-9-10T08:42:29Z
2022-09-10T06:43:40Z,42.805,6.029,13.3009,4.60049,2470.366,2022-9-10T08:45:32Z
2022-09-10T06:46:43Z,42.805,6.029,13.3006,4.60046,2470.46,2022-9-10T08:48:35Z
2022-09-10T06:49:46Z,42.805,6.029,13.3009,4.60048,2470.39,2022-9-10T08:51:38Z
2022-09-10T06:52:49Z,42.805,6.029,13.3006,4.60046,2470.39,2022-9-10T08:54:41Z
2022-09-10T06:55:52Z,42.805,6.029,13.3009,4.60048,2470.413,2022-9-10T08:57:44Z
2022-09-10T06:58:56Z,42.805,6.029,13.3006,4.60050,2470.39,2022-9-10T09:00:47Z
2022-09-10T07:01:59Z,42.805,6.029,13.3011,4.60052,2470.427,2022-9-10T09:03:51Z
2022-09-10T07:05:02Z,42.805,6.029,13.3006,4.60055,2470.413,2022-9-10T09:06:54Z
2022-09-10T07:08:05Z,42.805,6.029,13.3006,4.60052,2470.413,2022-9-10T09:09:57Z
2022-09-10T07:11:08Z,42.805,6.029,13.3007,4.60050,2470.413,2022-9-10T09:13:00Z
2022-09-10T07:14:11Z,42.805,6.029,13.3011,4.60054,2470.404,2022-9-10T09:16:03Z
2022-09-10T07:17:14Z,42.805,6.029,13.3012,4.60062,2470.39,2022-9-10T09:19:06Z
2022-09-10T07:20:17Z,42.805,6.029,13.3014,4.60052,2470.427,2022-9-10T09:22:09Z
2022-09-10T07:23:21Z,42.805,6.029,13.3011,4.60049,2470.413,2022-9-10T09:25:12Z
2022-09-10T07:26:24Z,42.805,6.029,13.3007,4.60051,2470.39,2022-9-10T09:28:16Z
2022-09-10T07:29:27Z,42.805,6.029,13.3006,4.60049,2470.427,2022-9-10T09:31:19Z
2022-09-10T07:32:30Z,42.805,6.029,13.3009,4.60048,2470.413,2022-9-10T09:34:22Z
2022-09-10T07:35:33Z,42.805,6.029,13.3017,4.60050,2470.39,2022-9-10T09:37:25Z
2022-09-10T07:38:36Z,42.805,6.029,13.3010,4.60049,2470.413,2022-9-10T09:40:28Z
2022-09-10T07:41:39Z,42.805,6.029,13.3016,4.60052,2470.427,2022-9-10T09:43:31Z
2022-09-10T07:44:42Z,42.805,6.029,13.3015,4.60055,2470.413,2022-9-10T09:46:34Z
2022-09-10T07:47:46Z,42.805,6.029,13.3009,4.60051,2470.413,2022-9-10T09:49:37Z
2022-09-10T07:50:49Z,42.805,6.029,13.3012,4.60052,2470.39,2022-9-10T09:52:41Z
2022-09-10T07:53:52Z,42.805,6.029,13.3008,4.60062,2470.366,2022-9-10T09:55:44Z
2022-09-10T07:56:55Z,42.805,6.029,13.3009,4.60053,2470.39,2022-9-10T09:58:47Z
2022-09-10T07:59:58Z,42.805,6.029,13.3009,4.60052,2470.404,2022-9-10T10:01:50Z
2022-09-10T08:03:01Z,42.805,6.029,13.3009,4.60053,2470.38,2022-9-10T10:04:53Z
2022-09-10T08:06:04Z,42.805,6.029,13.3008,4.60051,2470.413,2022-9-10T10:07:56Z
2022-09-10T08:09:07Z,42.805,6.029,13.3014,4.60054,2470.366,2022-9-10T10:10:59Z
2022-09-10T08:12:11Z,42.805,6.029,13.3012,4.60054,2470.39,2022-9-10T10:14:02Z
2022-09-10T08:15:14Z,42.805,6.029,13.3009,4.60053,2470.404,2022-9-10T10:17:06Z
2022-09-10T08:18:17Z,42.805,6.029,13.3009,4.60057,2470.39,2022-9-10T10:20:09Z
2022-09-10T08:21:20Z,42.805,6.029,13.3005,4.60058,2470.39,2022-9-10T10:23:12Z
2022-09-10T08:24:23Z,42.805,6.029,13.3009,4.60063,2470.366,2022-9-10T10:26:15Z
2022-09-10T08:27:26Z,42.805,6.029,13.3004,4.60059,2470.366,2022-9-10T10:29:18Z
2022-09-10T08:30:29Z,42.805,6.029,13.3010,4.60053,2470.404,2022-9-10T10:32:21Z
2022-09-10T08:33:32Z,42.805,6.029,13.3009,4.60064,2470.404,2022-9-10T10:35:24Z
2022-09-10T08:36:36Z,42.805,6.029,13.3006,4.60057,2470.404,2022-9-10T10:38:27Z
2022-09-10T08:39:39Z,42.805,6.029,13.3007,4.60057,2470.366,2022-9-10T10:41:31Z
2022-09-10T08:42:42Z,42.805,6.029,13.3006,4.60057,2470.38,2022-9-10T10:44:34Z
2022-09-10T08:45:45Z,42.805,6.029,13.3005,4.60055,2470.38,2022-9-10T10:47:37Z
2022-09-10T08:48:48Z,42.805,6.029,13.3008,4.60052,2470.366,2022-9-10T10:50:40Z
2022-09-10T08:51:51Z,42.805,6.029,13.3006,4.60055,2470.343,2022-9-10T10:53:43Z
2022-09-10T08:54:54Z,42.805,6.029,13.3004,4.60050,2470.343,2022-9-10T10:56:46Z
2022-09-10T08:57:57Z,42.805,6.029,13.3007,4.60049,2470.32,2022-9-10T10:59:49Z
2022-09-10T09:01:01Z,42.805,6.029,13.3004,4.60049,2470.343,2022-9-10T11:02:52Z
2022-09-10T09:04:04Z,42.805,6.029,13.3007,4.60051,2470.343,2022-9-10T11:05:56Z
2022-09-10T09:07:07Z,42.805,6.029,13.3011,4.60050,2470.343,2022-9-10T11:08:59Z
2022-09-10T09:10:10Z,42.805,6.029,13.3009,4.60054,2470.366,2022-9-10T11:12:02Z
2022-09-10T09:13:13Z,42.805,6.029,13.3007,4.60066,2470.343,2022-9-10T11:15:05Z
2022-09-10T09:16:16Z,42.805,6.029,13.3009,4.60056,2470.343,2022-9-10T11:18:08Z
2022-09-10T09:19:19Z,42.805,6.029,13.3008,4.60055,2470.343,2022-9-10T11:21:11Z
2022-09-10T09:22:22Z,42.805,6.029,13.3006,4.60058,2470.334,2022-9-10T11:24:14Z
2022-09-10T09:25:26Z,42.805,6.029,13.3006,4.60055,2470.297,2022-9-10T11:27:17Z
2022-09-10T09:28:29Z,42.805,6.029,13.3008,4.60064,2470.343,2022-9-10T11:30:21Z
2022-09-10T09:31:32Z,42.805,6.029,13.3008,4.60062,2470.343,2022-9-10T11:33:24Z
2022-09-10T09:34:35Z,42.805,6.029,13.3007,4.60057,2470.32,2022-9-10T11:36:27Z
2022-09-10T09:37:38Z,42.805,6.029,13.3006,4.60072,2470.297,2022-9-10T11:39:30Z
2022-09-10T09:40:41Z,42.805,6.029,13.3009,4.60053,2470.343,2022-9-10T11:42:33Z
2022-09-10T09:43:44Z,42.805,6.029,13.3009,4.60052,2470.32,2022-9-10T11:45:36Z
2022-09-10T09:46:47Z,42.805,6.029,13.3006,4.60054,2470.32,2022-9-10T11:48:39Z
2022-09-10T09:49:51Z,42.805,6.029,13.3007,4.60053,2470.31,2022-9-10T11:51:42Z
2022-09-10T09:52:54Z,42.805,6.029,13.3009,4.60057,2470.297,2022-9-10T11:54:46Z
2022-09-10T09:55:57Z,42.805,6.029,13.3008,4.60056,2470.297,2022-9-10T11:57:49Z
2022-09-10T09:59:00Z,42.805,6.029,13.3008,4.60060,2470.297,2022-9-10T12:00:52Z
2022-09-10T10:02:03Z,42.805,6.029,13.3011,4.60097,2470.32,2022-9-10T12:03:55Z
2022-09-10T10:05:06Z,42.805,6.029,13.3006,4.60071,2470.31,2022-9-10T12:06:58Z
2022-09-10T10:08:09Z,42.805,6.029,13.3011,4.60066,2470.25,2022-9-10T12:10:01Z
2022-09-10T10:11:12Z,42.805,6.029,13.3003,4.60072,2470.273,2022-9-10T12:13:04Z
2022-09-10T10:14:16Z,42.805,6.029,13.3011,4.60074,2470.283,2022-9-10T12:16:07Z
2022-09-10T10:17:19Z,42.805,6.029,13.3008,4.60082,2470.25,2022-9-10T12:19:11Z
2022-09-10T10:20:22Z,42.805,6.029,13.3006,4.60078,2470.273,2022-9-10T12:22:14Z
2022-09-10T10:23:25Z,42.805,6.029,13.3008,4.60077,2470.297,2022-9-10T12:25:17Z
2022-09-10T10:26:28Z,42.805,6.029,13.3008,4.60073,2470.273,2022-9-10T12:28:20Z
2022-09-10T10:29:31Z,42.805,6.029,13.3007,4.60080,2470.32,2022-9-10T12:31:23Z
2022-09-10T10:32:34Z,42.805,6.029,13.3005,4.60064,2470.264,2022-9-10T12:34:26Z
2022-09-10T10:35:37Z,42.805,6.029,13.3012,4.60072,2470.273,2022-9-10T12:37:29Z
2022-09-10T10:38:41Z,42.805,6.029,13.3009,4.60052,2470.264,2022-9-10T12:40:32Z
2022-09-10T10:41:44Z,42.805,6.029,13.3012,4.60052,2470.264,2022-9-10T12:43:36Z
2022-09-10T10:44:47Z,42.805,6.029,13.3009,4.60052,2470.287,2022-9-10T12:46:39Z
2022-09-10T10:47:50Z,42.805,6.029,13.3009,4.60053,2470.273,2022-9-10T12:49:42Z
2022-09-10T10:50:53Z,42.805,6.029,13.3010,4.60052,2470.25,2022-9-10T12:52:45Z
2022-09-10T10:53:56Z,42.805,6.029,13.3009,4.60067,2470.25,2022-9-10T12:55:48Z
2022-09-10T10:56:59Z,42.805,6.029,13.3013,4.60054,2470.25,2022-9-10T12:58:51Z
2022-09-10T11:00:02Z,42.805,6.029,13.3011,4.60062,2470.24,2022-9-10T13:01:54Z
2022-09-10T11:03:06Z,42.805,6.029,13.3009,4.60067,2470.264,2022-9-10T13:04:57Z
2022-09-10T11:06:09Z,42.805,6.029,13.3009,4.60058,2470.227,2022-9-10T13:08:01Z
2022-09-10T11:09:12Z,42.805,6.029,13.3009,4.60062,2470.25,2022-9-10T13:11:04Z
2022-09-10T11:12:15Z,42.805,6.029,13.3007,4.60105,2470.227,2022-9-10T13:14:07Z
2022-09-10T11:15:18Z,42.805,6.029,13.3008,4.60102,2470.203,2022-9-10T13:17:10Z
2022-09-10T11:18:21Z,42.805,6.029,13.3010,4.60072,2470.24,2022-9-10T13:20:13Z
2022-09-10T11:21:24Z,42.805,6.029,13.3011,4.60102,2470.24,2022-9-10T13:23:16Z
2022-09-10T11:24:27Z,42.805,6.029,13.3008,4.60097,2470.227,2022-9-10T13:26:19Z
2022-09-10T11:27:31Z,42.805,6.029,13.3013,4.60107,2470.24,2022-9-10T13:29:22Z
2022-09-10T11:30:34Z,42.805,6.029,13.3010,4.60104,2470.227,2022-9-10T13:32:26Z
2022-09-10T11:33:37Z,42.805,6.029,13.3011,4.60108,2470.227,2022-9-10T13:35:29Z
2022-09-10T11:36:40Z,42.805,6.029,13.3011,4.60114,2470.227,2022-9-10T13:38:32Z
2022-09-10T11:39:43Z,42.805,6.029,13.3015,4.60126,2470.273,2022-9-10T13:41:35Z
2022-09-10T11:42:46Z,42.805,6.029,13.3012,4.60144,2470.25,2022-9-10T13:44:38Z
2022-09-10T11:45:49Z,42.805,6.029,13.3014,4.60144,2470.25,2022-9-10T13:47:41Z
2022-09-10T11:48:52Z,42.805,6.029,13.3012,4.60104,2470.24,2022-9-10T13:50:44Z
2022-09-10T11:51:56Z,42.805,6.029,13.3020,4.60125,2470.217,2022-9-10T13:53:47Z
2022-09-10T11:54:59Z,42.805,6.029,13.3048,4.60121,2470.217,2022-9-10T13:56:51Z
2022-09-10T11:58:02Z,42.805,6.029,13.3029,4.60135,2470.217,2022-9-10T13:59:54Z
2022-09-10T12:01:05Z,42.805,6.029,13.3061,4.60113,2470.24,2022-9-10T14:02:57Z
2022-09-10T12:04:08Z,42.805,6.029,13.3058,4.60125,2470.203,2022-9-10T14:06:00Z
2022-09-10T12:07:11Z,42.805,6.029,13.3075,4.60131,2470.203,2022-9-10T14:09:03Z
2022-09-10T12:10:14Z,42.805,6.029,13.3085,4.60113,2470.217,2022-9-10T14:12:06Z
2022-09-10T12:13:17Z,42.805,6.029,13.3091,4.60132,2470.203,2022-9-10T14:15:09Z
2022-09-10T12:16:21Z,42.805,6.029,13.3095,4.60137,2470.194,2022-9-10T14:18:12Z
2022-09-10T12:19:24Z,42.805,6.029,13.3104,4.60119,2470.24,2022-9-10T14:21:16Z
2022-09-10T12:22:27Z,42.805,6.029,13.3104,4.60122,2470.24,2022-9-10T14:24:19Z
2022-09-10T12:25:30Z,42.805,6.029,13.3109,4.60122,2470.194,2022-9-10T14:27:22Z
2022-09-10T12:28:33Z,42.805,6.029,13.3108,4.60120,2470.203,2022-9-10T14:30:25Z
2022-09-10T12:31:36Z,42.805,6.029,13.3101,4.60102,2470.156,2022-9-10T14:33:28Z
2022-09-10T12:34:39Z,42.805,6.029,13.3102,4.60090,2470.194,2022-9-10T14:36:31Z
2022-09-10T12:37:42Z,42.805,6.029,13.3097,4.60081,2470.18,2022-9-10T14:39:34Z
2022-09-10T12:40:46Z,42.805,6.029,13.3084,4.60085,2470.194,2022-9-10T14:42:37Z
2022-09-10T12:43:49Z,42.805,6.029,13.3010,4.60113,2470.217,2022-9-10T14:45:41Z
2022-09-10T12:46:52Z,42.805,6.029,13.3009,4.60084,2470.171,2022-9-10T14:48:44Z
2022-09-10T12:49:55Z,42.805,6.029,13.3008,4.60081,2470.171,2022-9-10T14:51:47Z
2022-09-10T12:52:58Z,42.805,6.029,13.3011,4.60069,2470.203,2022-9-10T14:54:50Z
2022-09-10T12:56:01Z,42.805,6.029,13.3009,4.60061,2470.171,2022-9-10T14:57:53Z
2022-09-10T12:59:04Z,42.805,6.029,13.3008,4.60062,2470.194,2022-9-10T15:00:56Z
2022-09-10T13:02:07Z,42.805,6.029,13.3002,4.60058,2470.189,2022-9-10T15:03:59Z
2022-09-10T13:05:11Z,42.805,6.029,13.3009,4.60063,2470.217,2022-9-10T15:07:02Z
2022-09-10T13:08:14Z,42.805,6.029,13.3004,4.60053,2470.156,2022-9-10T15:10:06Z
2022-09-10T13:11:17Z,42.805,6.029,13.3009,4.60056,2470.171,2022-9-10T15:13:09Z
2022-09-10T13:14:20Z,42.805,6.029,13.3008,4.60057,2470.18,2022-9-10T15:16:12Z
2022-09-10T13:17:23Z,42.805,6.029,13.3011,4.60054,2470.156,2022-9-10T15:19:15Z
2022-09-10T13:20:26Z,42.805,6.029,13.3004,4.60055,2470.18,2022-9-10T15:22:18Z
2022-09-10T13:23:29Z,42.805,6.029,13.3006,4.60057,2470.18,2022-9-10T15:25:21Z
2022-09-10T13:26:32Z,42.805,6.029,13.3006,4.60058,2470.171,2022-9-10T15:28:24Z
2022-09-10T13:29:36Z,42.805,6.029,13.3006,4.60057,2470.18,2022-9-10T15:31:27Z
2022-09-10T13:32:39Z,42.805,6.029,13.3006,4.60060,2470.133,2022-9-10T15:34:31Z
2022-09-10T13:35:42Z,42.805,6.029,13.3011,4.60058,2470.194,2022-9-10T15:37:34Z
2022-09-10T13:38:45Z,42.805,6.029,13.3005,4.60062,2470.156,2022-9-10T15:40:37Z
2022-09-10T13:41:48Z,42.805,6.029,13.3006,4.60063,2470.18,2022-9-10T15:43:40Z
2022-09-10T13:44:51Z,42.805,6.029,13.3006,4.60064,2470.166,2022-9-10T15:46:43Z
2022-09-10T13:47:54Z,42.805,6.029,13.3004,4.60063,2470.194,2022-9-10T15:49:46Z
2022-09-10T13:50:57Z,42.805,6.029,13.3007,4.60072,2470.194,2022-9-10T15:52:49Z
2022-09-10T13:54:01Z,42.805,6.029,13.3008,4.60072,2470.156,2022-9-10T15:55:53Z
2022-09-10T13:57:04Z,42.805,6.029,13.3009,4.60072,2470.156,2022-9-10T15:58:56Z
2022-09-10T14:00:07Z,42.805,6.029,13.3008,4.60077,2470.194,2022-9-10T16:01:59Z
2022-09-10T14:03:10Z,42.805,6.029,13.3006,4.60069,2470.156,2022-9-10T16:05:02Z
2022-09-10T14:06:13Z,42.805,6.029,13.3008,4.60074,2470.18,2022-9-10T16:08:05Z
2022-09-10T14:09:16Z,42.805,6.029,13.3006,4.60068,2470.156,2022-9-10T16:11:08Z
2022-09-10T14:12:19Z,42.805,6.029,13.3007,4.60079,2470.156,2022-9-10T16:14:11Z
2022-09-10T14:15:22Z,42.805,6.029,13.3009,4.60083,2470.171,2022-9-10T16:17:14Z
2022-09-10T14:18:26Z,42.805,6.029,13.3010,4.60074,2470.18,2022-9-10T16:20:17Z
2022-09-10T14:21:29Z,42.805,6.029,13.3006,4.60079,2470.18,2022-9-10T16:23:21Z
2022-09-10T14:24:32Z,42.805,6.029,13.3009,4.60079,2470.227,2022-9-10T16:26:24Z
2022-09-10T14:27:35Z,42.805,6.029,13.3008,4.60072,2470.194,2022-9-10T16:29:27Z
2022-09-10T14:30:38Z,42.805,6.029,13.3010,4.60072,2470.203,2022-9-10T16:32:30Z
2022-09-10T14:33:41Z,42.805,6.029,13.3004,4.60066,2470.18,2022-9-10T16:35:33Z
2022-09-10T14:36:44Z,42.805,6.029,13.3008,4.60070,2470.203,2022-9-10T16:38:36Z
2022-09-10T14:39:47Z,42.805,6.029,13.3009,4.60078,2470.203,2022-9-10T16:41:39Z
2022-09-10T14:42:51Z,42.805,6.029,13.3009,4.60079,2470.156,2022-9-10T16:44:43Z
2022-09-10T14:45:54Z,42.805,6.029,13.3010,4.60075,2470.18,2022-9-10T16:47:46Z
2022-09-10T14:48:57Z,42.805,6.029,13.3006,4.60072,2470.217,2022-9-10T16:50:49Z
2022-09-10T14:52:00Z,42.805,6.029,13.3006,4.60074,2470.203,2022-9-10T16:53:52Z
2022-09-10T14:55:03Z,42.805,6.029,13.3010,4.60069,2470.217,2022-9-10T16:56:55Z
2022-09-10T14:58:06Z,42.805,6.029,13.3008,4.60074,2470.171,2022-9-10T16:59:58Z
2022-09-10T15:01:09Z,42.805,6.029,13.3009,4.60072,2470.194,2022-9-10T17:03:01Z
2022-09-10T15:04:13Z,42.805,6.029,13.3004,4.60069,2470.203,2022-9-10T17:06:04Z
2022-09-10T15:07:16Z,42.805,6.029,13.3009,4.60062,2470.217,2022-9-10T17:09:08Z
2022-09-10T15:10:19Z,42.805,6.029,13.3004,4.60069,2470.203,2022-9-10T17:12:11Z
2022-09-10T15:13:22Z,42.805,6.029,13.3013,4.60069,2470.203,2022-9-10T17:15:14Z